OBJECT F, 63330

Orbit data source: Space-Track

You're viewing an Uncataloged Satellite

Recently launched and/or uncataloged satellites may have evolving metadata. Metadata may include but not limited to: Owner, Maufacturer, Bus, Motor, and Mission.

OBJECT F, 63330 is a satellite owned by MO RF (CIS) in LEO that was launched on Wed, 05 Feb 2025 UTC launched from the Plesetsk Missile And Space Complex (PKMTR). Unknown objects in Earth's orbit typically refer to objects detected orbiting the Earth but have not yet been identified or cataloged. These objects could be anything from previously untracked satellites, spent rocket stages, debris from satellite collisions, or even natural meteoroids temporarily captured by Earth's gravity.

Loading next visibility...
Identifier
63330, 2025-026F
Orbit
LEO
Last TLE update
16 hours ago
Origin
Manufacturer
VNIIEM
Mission
Spacecraft
Bus & Motor
EMKA, Unknown motor
Mass
Unknown
Launch date (UTC)
2025-02-05 (3 months ago)
Launch vehicle
Unknown
Launch site
Plesetsk Missile And Space Complex (PKMTR)
Object type
Unknown
Shape & HBR
Unknown
Radar Cross Section
Medium (>0.1 m² and <1 m²)

Expand to show TLE details & history

TLE from 16 hours ago
0 OBJECT F
1 63330U 25026F   25128.94767808  .00004667  00000-0  43477-3 0  9998
2 63330  81.9920 126.4226 0011891 329.1957  30.8563 14.94045836  7629
Epoch: 2025-05-08T22:44Z
Definitive object data (Epoch: 2025-05-08T22:44:39.386Z)
Latitude
-0°
Longitude
-81.75237°
Altitude
581.266 km
Speed
7.574 km/s
True Right ascension
08h 25m 41s
True Declination
0° 00' 00"
Sunlit
Object was in daylight at TLE epoch
Visualization TLE readout
Latitude
-79.78125°
Longitude
148.49529°
Altitude
609.667 km
Speed
7.555 km/s
Apparent Right ascension
10h 09m 22s
Apparent Declination
-71° 06' 34"
Sunlit
Object is in daylight
Visualization observer readout
Local Sidereal Time
22:33:23
Azimuth
176.269° S
Elevation
-58.657°
Doppler factor
1
Orbital elements
Apogee altitude
590.64 km
Perigee altitude
574.086 km
Semi-major axis
6,960.5 km
Eccentricity
0.0011891
Inclination
81.992°
RAAN
126.4226°
Arg. of periapsis
329.1957°
True anomaly
30.92628°
Mean anomaly
30.8563°
Eccentric anomaly
30.89128°
Mean motion
3.73751 °/min
BSTAR
0.00043477
Orbital period
96.32 mins
Loading maneuver chart data...
Loading SW <> Apogee altitude chart data...
Loading historical data...
Loading historical data...
Loading historical data...
Loading historical data...
Loading historical data...
Loading historical data...
Loading historical data...

OBJECT F Visibility forecast

Observer location: undefined°, undefined°

Span
Click to sort rows by Start time (UTC) header in descending order
Start Az.
Max El. time (UTC)
Max El. Az.
Max El.
End time (UTC)
End Az.
7 mins2025-05-10 00:35:14.809Z189.201° SSW2025-05-10 00:38:14.809Z209.901° SW44.344°2025-05-10 00:42:14.809Z6.938° NNE
5 mins2025-05-10 10:41:14.809Z38.793° NE2025-05-10 10:43:14.809Z75.36° E19.662°2025-05-10 10:46:14.809Z121.885° SE
5 mins2025-05-10 12:18:14.809Z313.597° NW2025-05-10 12:20:14.809Z271.915° WNW25.604°2025-05-10 12:23:14.809Z215.647° SW
|